Location: Crescent
(42.8242°N, 73.7329°W)
Time: 03:53:11
(UTC+00:00)

Tiros 1 - Pass Details

Date: 23 February 2026
Orbit: 618 x 649 km, 48.4° (Epoch: 7 March)

Event Time Altitude Azimuth Distance (km) Brightness Sun altitude
Rises 16:42:28 0° 295° (WNW) 2,902 10.2 37.2°
Reaches altitude 10° 16:44:47 10° 295° (WNW) 1,990 9.5 37.3°
Maximum altitude 16:49:21 78° 210° (SSW) 635 8.0 37.4°
Drops below altitude 10° 16:53:53 10° 123° (ESE) 1,974 10.2 37.4°
Sets 16:56:11 0° 122° (ESE) 2,876 10.9 37.5°
